• In Uzbekistan
  • List of Countries
  • For 7 days
  • Water Temperature
  • Satellite Maps
  • Weather Map
  • Weather Widgets
  • user-avatar
    Login

    Hourly Weather Nashavar

    Today, 17 July, Wednesday

    Time Temperature Precipitation Wind Pressure Humidity
    00:00 +34°C° 1.3 mm 2 mps 722 mmHg 65%
    01:00 +32°C° 1.3 mm 2 mps 722 mmHg 68%
    02:00 +31°C° 1.3 mm 2 mps 722 mmHg 71%
    03:00 +31°C° 2.1 mm 3 mps 722 mmHg 73%
    04:00 +30°C° 2.1 mm 3 mps 722 mmHg 75%
    05:00 +30°C° 0 mm 3 mps 722 mmHg 76%
    06:00 +31°C° 1.2 mm 2 mps 722 mmHg 73%
    07:00 +31°C° 1.2 mm 2 mps 722 mmHg 71%
    08:00 +32°C° 1.2 mm 2 mps 723 mmHg 68%
    09:00 +32°C° 0.1 mm 2 mps 723 mmHg 64%
    10:00 +34°C° 0.1 mm 2 mps 723 mmHg 60%
    11:00 +36°C° 0 mm 2 mps 723 mmHg 54%
    12:00 +37°C° 0 mm 2 mps 723 mmHg 52%
    13:00 +37°C° 0 mm 3 mps 722 mmHg 49%
    14:00 +38°C° 0 mm 3 mps 722 mmHg 47%
    15:00 +38°C° 0 mm 3 mps 722 mmHg 46%
    16:00 +39°C° 0 mm 3 mps 722 mmHg 45%
    17:00 +39°C° 0 mm 3 mps 721 mmHg 44%
    18:00 +38°C° 0 mm 3 mps 721 mmHg 45%
    19:00 +38°C° 0 mm 3 mps 722 mmHg 46%
    20:00 +37°C° 0 mm 2 mps 722 mmHg 47%
    21:00 +37°C° 0 mm 2 mps 722 mmHg 48%
    22:00 +37°C° 0 mm 2 mps 722 mmHg 49%
    23:00 +36°C° 0 mm 2 mps 722 mmHg 50%

    Tomorrow, 18 July, Thursday

    Time Temperature Precipitation Wind Pressure Humidity
    00:00 +35°C° 0.7 mm 1 mps 722 mmHg 52%
    01:00 +34°C° 0.7 mm 1 mps 722 mmHg 55%
    02:00 +33°C° 0.7 mm 1 mps 722 mmHg 57%
    03:00 +33°C° 1.7 mm 1 mps 722 mmHg 61%
    04:00 +32°C° 1.7 mm 1 mps 722 mmHg 64%
    05:00 +29°C° 1.7 mm 0 mps 722 mmHg 68%
    06:00 +30°C° 0.4 mm 0 mps 722 mmHg 65%
    07:00 +30°C° 0.4 mm 0 mps 722 mmHg 62%
    08:00 +33°C° 0.4 mm 1 mps 722 mmHg 59%
    09:00 +34°C° 0.1 mm 1 mps 722 mmHg 54%
    10:00 +35°C° 0.1 mm 1 mps 722 mmHg 50%
    11:00 +38°C° 0.1 mm 2 mps 722 mmHg 46%
    12:00 +39°C° 0 mm 2 mps 722 mmHg 43%
    13:00 +40°C° 0 mm 2 mps 722 mmHg 40%
    14:00 +42°C° 0 mm 3 mps 722 mmHg 36%
    15:00 +42°C° 0 mm 3 mps 721 mmHg 36%
    16:00 +42°C° 0 mm 3 mps 721 mmHg 35%
    17:00 +42°C° 0 mm 3 mps 721 mmHg 34%
    18:00 +42°C° 0 mm 3 mps 721 mmHg 37%
    19:00 +40°C° 0 mm 3 mps 721 mmHg 40%
    20:00 +39°C° 0 mm 3 mps 721 mmHg 43%
    21:00 +38°C° 0.1 mm 3 mps 722 mmHg 45%
    22:00 +38°C° 0.1 mm 2 mps 722 mmHg 46%
    23:00 +38°C° 0.1 mm 2 mps 722 mmHg 48%

    Day after tomorrow, 19 July, Friday

    Time Temperature Precipitation Wind Pressure Humidity
    00:00 +36°C° 2.1 mm 2 mps 722 mmHg 53%
    01:00 +34°C° 2.1 mm 1 mps 722 mmHg 57%
    02:00 +33°C° 2.1 mm 1 mps 721 mmHg 62%
    03:00 +32°C° 1.3 mm 1 mps 721 mmHg 64%
    04:00 +32°C° 1.3 mm 1 mps 721 mmHg 66%
    05:00 +32°C° 1.3 mm 1 mps 722 mmHg 68%
    06:00 +32°C° 0.3 mm 1 mps 722 mmHg 66%
    07:00 +33°C° 0.3 mm 1 mps 722 mmHg 64%
    08:00 +33°C° 0.3 mm 1 mps 722 mmHg 61%
    09:00 +34°C° 0.6 mm 1 mps 722 mmHg 57%
    10:00 +36°C° 0.6 mm 1 mps 723 mmHg 53%
    11:00 +37°C° 0.6 mm 1 mps 723 mmHg 48%
    12:00 +39°C° 0 mm 2 mps 723 mmHg 45%
    13:00 +40°C° 0 mm 2 mps 722 mmHg 41%
    14:00 +41°C° 0 mm 2 mps 722 mmHg 37%
    15:00 +42°C° 0 mm 3 mps 722 mmHg 36%
    16:00 +43°C° 0 mm 3 mps 722 mmHg 35%
    17:00 +43°C° 0 mm 4 mps 721 mmHg 34%
    18:00 +42°C° 0 mm 3 mps 722 mmHg 37%
    19:00 +40°C° 0 mm 3 mps 722 mmHg 40%
    20:00 +40°C° 0 mm 3 mps 722 mmHg 42%
    21:00 +39°C° 0.1 mm 3 mps 723 mmHg 45%
    22:00 +38°C° 0.1 mm 2 mps 723 mmHg 47%
    23:00 +38°C° 0.1 mm 2 mps 723 mmHg 50%

    20 July, Saturday

    Time Temperature Precipitation Wind Pressure Humidity
    00:00 +37°C° 0.6 mm 2 mps 723 mmHg 53%
    01:00 +36°C° 0.6 mm 2 mps 723 mmHg 56%
    02:00 +36°C° 0.6 mm 2 mps 723 mmHg 59%
    03:00 +34°C° 1.3 mm 1 mps 722 mmHg 62%
    04:00 +33°C° 1.3 mm 1 mps 722 mmHg 66%
    05:00 +32°C° 1.3 mm 1 mps 722 mmHg 69%
    06:00 +33°C° 0.4 mm 1 mps 723 mmHg 67%
    07:00 +33°C° 0.4 mm 1 mps 723 mmHg 64%
    08:00 +34°C° 0.4 mm 1 mps 723 mmHg 62%
    09:00 +35°C° 0 mm 1 mps 723 mmHg 58%
    10:00 +36°C° 0 mm 1 mps 723 mmHg 55%
    11:00 +37°C° 0 mm 1 mps 723 mmHg 51%
    12:00 +39°C° 0 mm 1 mps 723 mmHg 47%
    13:00 +40°C° 0 mm 1 mps 723 mmHg 44%
    14:00 +41°C° 0 mm 2 mps 722 mmHg 40%
    15:00 +42°C° 0 mm 2 mps 722 mmHg 39%
    16:00 +42°C° 0 mm 2 mps 721 mmHg 38%
    17:00 +42°C° 0 mm 2 mps 721 mmHg 36%
    18:00 +41°C° 0 mm 2 mps 721 mmHg 39%
    19:00 +41°C° 0 mm 2 mps 721 mmHg 42%
    20:00 +40°C° 0 mm 2 mps 721 mmHg 45%
    21:00 +39°C° 0 mm 2 mps 721 mmHg 47%
    22:00 +39°C° 0 mm 2 mps 722 mmHg 48%
    23:00 +37°C° 0 mm 1 mps 722 mmHg 50%

    21 July, Sunday

    Time Temperature Precipitation Wind Pressure Humidity
    00:00 +37°C° 0 mm 1 mps 721 mmHg 51%
    01:00 +37°C° 0 mm 1 mps 721 mmHg 52%
    02:00 +36°C° 0 mm 1 mps 721 mmHg 53%
    03:00 +36°C° 0 mm 1 mps 721 mmHg 54%
    04:00 +36°C° 0 mm 1 mps 721 mmHg 55%
    05:00 +35°C° 0 mm 1 mps 720 mmHg 55%
    06:00 +36°C° 0 mm 1 mps 721 mmHg 53%
    07:00 +37°C° 0 mm 1 mps 721 mmHg 50%
    08:00 +37°C° 0 mm 1 mps 721 mmHg 48%
    09:00 +39°C° 0 mm 1 mps 721 mmHg 44%
    10:00 +40°C° 0 mm 1 mps 721 mmHg 41%
    11:00 +41°C° 0 mm 1 mps 721 mmHg 38%
    12:00 +42°C° 0 mm 1 mps 721 mmHg 35%
    13:00 +43°C° 0 mm 2 mps 720 mmHg 33%
    14:00 +45°C° 0 mm 2 mps 720 mmHg 30%
    15:00 +45°C° 0 mm 2 mps 719 mmHg 29%
    16:00 +46°C° 0 mm 3 mps 719 mmHg 28%
    17:00 +46°C° 0 mm 3 mps 719 mmHg 27%
    18:00 +45°C° 0 mm 3 mps 719 mmHg 30%
    19:00 +44°C° 0 mm 3 mps 719 mmHg 33%
    20:00 +43°C° 0 mm 4 mps 719 mmHg 36%
    21:00 +42°C° 0 mm 3 mps 719 mmHg 39%
    22:00 +40°C° 0 mm 2 mps 720 mmHg 41%
    23:00 +39°C° 0 mm 1 mps 720 mmHg 44%

    22 July, Monday

    Time Temperature Precipitation Wind Pressure Humidity
    00:00 +39°C° 0 mm 1 mps 720 mmHg 46%
    01:00 +37°C° 0 mm 1 mps 719 mmHg 47%
    02:00 +37°C° 0 mm 1 mps 719 mmHg 48%
    03:00 +37°C° 0 mm 1 mps 719 mmHg 50%
    04:00 +36°C° 0 mm 1 mps 719 mmHg 51%
    05:00 +36°C° 0 mm 1 mps 719 mmHg 53%
    06:00 +36°C° 0 mm 1 mps 719 mmHg 50%
    07:00 +37°C° 0 mm 1 mps 720 mmHg 48%
    08:00 +39°C° 0 mm 1 mps 720 mmHg 46%
    09:00 +40°C° 0 mm 2 mps 720 mmHg 42%
    10:00 +41°C° 0 mm 2 mps 720 mmHg 39%
    11:00 +42°C° 0 mm 2 mps 720 mmHg 36%
    12:00 +43°C° 0 mm 2 mps 719 mmHg 33%
    13:00 +45°C° 0 mm 2 mps 719 mmHg 30%
    14:00 +46°C° 0 mm 2 mps 718 mmHg 27%
    15:00 +46°C° 0 mm 3 mps 718 mmHg 26%
    16:00 +46°C° 0 mm 3 mps 718 mmHg 25%
    17:00 +47°C° 0 mm 3 mps 717 mmHg 24%
    18:00 +45°C° 0 mm 3 mps 717 mmHg 27%
    19:00 +44°C° 0 mm 3 mps 717 mmHg 30%
    20:00 +43°C° 0 mm 3 mps 717 mmHg 32%
    21:00 +42°C° 0 mm 3 mps 717 mmHg 35%
    22:00 +41°C° 0 mm 2 mps 718 mmHg 37%
    23:00 +40°C° 0 mm 2 mps 718 mmHg 39%
    Show more